sat.trackr.live / text

‹ back to catalog

DONGPO 07

NORAD 53444 · 2022-098A

PAYLOAD ACTIVE UNKNOWN

§ Identity

Operator
Country
PRC
Launch date
2022-08-10
Launch site
TAISC
Launch vehicle
Mass (kg)
RCS (m²)

External: N2YO · Heavens-Above · Gunter

§ Orbital elements

Epoch: 2026-05-25T04:38:10.832352Z

Period
91.85 min
Inclination
97.5512°
Eccentricity
0.0003332
Mean motion
15.67741708 rev/d
Perigee alt
363.1 km
Apogee alt
367.6 km
Semi-major
6,743.5 km
B*
6.9763e-4
RAAN
274.2063°
Arg perigee
98.9771°
Mean anomaly
261.1867°
Rev number
21,114

§ Raw data

DONGPO 071 53444U 22098A   26145.19318093  .00076796  00000+0  69763-3 0  99912 53444  97.5512 274.2063 0003332  98.9771 261.1867 15.67741708211143

JSON: /api/v1/satellites/53444 · /tle

For live sub-satellite position, see the globe view (requires WebGL).

§ Visibility from observer

Set your observer location to see the next 7 days of passes ≥ 10°. The values pass through the URL so the page stays shareable.

No JS? Fill the form by hand. The geolocation button needs JavaScript.